Lapse_Rate
7.0 6.8 6.7 6.6 6.4 6.3 6.3 5.9 6.1 6.2 6.6 6.6 5.9 5.5 5.7 6.1 6.8 5.8 5.5 5.0 4.6 5.2 4.8 4.5 5.4 4.8 5.9 5.8 6.5 5.7 6.4 6.3 6.5 6.5 6.5 6.5 6.5 6.5 6.5 6.5 6.5 6.5 6.5 6.5 6.5 6.5 6.5 6.4 6.4 6.5 6.5 5.2 5.8 5.4
6.5 6.5 6.5 6.4 6.2 6.1 5.9 5.9 6.2 6.5 6.6 6.2 6.2 6.4 6.9 7.1 6.5 5.8 5.9 4.5 3.5 4.4 4.6 3.5 3.5 3.9 4.9 4.0 4.0 6.3 6.5 6.5 6.6 6.5 6.5 6.5 6.5 6.5 6.5 6.5 6.5 6.5 6.5 6.5 6.5 6.5 6.5 5.7 6.1 4.7 4.3 4.8 5.8 3.6
6.4 6.2 6.5 6.6 6.3 6.1 5.9 6.0 5.8 5.8 5.9 6.6 6.1 6.2 6.7 6.3 7.2 5.8 4.8 4.4 3.3 3.3 3.0 3.4 2.8 4.3 3.5 3.8 4.0 4.5 5.7 5.8 6.6 6.7 6.5 6.5 6.5 6.5 6.5 6.5 6.5 6.5 6.5 6.5 6.5 6.5 6.5 6.0 5.8 5.1 4.3 4.3 2.9 2.2
6.6 6.4 6.4 6.6 6.5 6.2 5.9 5.8 6.1 5.6 6.1 6.5 6.6 6.5 6.2 6.9 7.1 6.3 4.9 3.2 2.9 3.1 5.8 4.2 3.8 3.6 3.2 3.0 4.1 4.4 5.0 5.1 5.7 6.3 6.5 6.5 6.5 6.5 6.5 6.5 6.5 6.5 6.5 6.5 6.5 6.5 6.3 6.1 4.4 4.7 4.1 2.3 1.9 2.9
7.3 7.0 6.8 6.7 6.5 6.3 6.1 5.6 5.8 6.0 5.5 6.6 7.1 6.8 6.5 6.4 5.9 4.5 4.9 4.5 4.0 4.2 6.6 4.5 6.1 3.2 2.9 2.9 3.9 4.2 4.4 6.2 6.4 6.5 6.5 6.5 6.5 6.5 6.5 6.5 6.5 6.5 6.5 6.5 6.5 6.5 6.4 6.0 3.9 3.6 3.6 2.7 2.4 1.5
7.3 7.2 7.2 6.9 6.6 6.3 6.1 5.8 5.7 6.0 5.8 6.7 6.9 6.9 7.0 5.8 4.9 4.3 5.2 5.2 5.1 4.3 4.5 6.5 3.7 3.9 2.8 3.3 4.6 6.2 6.5 6.8 6.5 6.4 6.5 6.5 5.8 6.4 6.5 6.5 6.5 5.7 4.7 4.8 6.4 4.0 5.6 3.3 4.5 4.3 4.3 3.0 2.1 1.7
7.0 7.2 7.4 7.0 6.6 6.3 6.2 5.9 5.8 6.0 6.3 6.2 7.1 7.1 6.7 5.9 5.7 5.4 6.2 5.7 5.9 5.6 5.5 6.5 6.5 6.6 7.1 6.2 6.1 6.4 6.7 6.6 6.6 6.4 6.5 6.4 6.4 6.6 6.5 6.5 6.5 5.4 5.0 5.3 4.8 4.8 5.3 4.0 5.0 4.2 3.5 2.7 1.3 2.1
6.7 6.7 6.7 6.6 6.6 6.3 6.0 5.9 5.7 5.9 6.6 6.0 6.2 6.4 6.5 6.5 6.2 5.9 5.2 6.5 6.4 5.6 6.0 6.5 6.5 6.5 6.6 6.5 6.5 5.7 6.3 6.2 6.0 6.4 6.4 6.5 6.2 6.5 6.5 6.5 5.8 5.6 5.7 5.4 4.0 4.1 5.2 3.7 3.7 3.6 2.6 2.4 2.1 2.0
6.5 6.5 6.6 6.5 6.5 6.5 6.2 5.8 5.4 5.4 5.7 6.5 6.4 6.8 5.5 4.5 5.0 5.6 6.0 6.3 5.7 5.8 6.5 6.5 6.5 6.5 6.3 6.6 6.2 6.0 6.2 6.5 6.1 6.5 6.5 6.5 6.5 6.5 6.5 6.5 6.3 5.6 5.5 5.4 5.0 4.3 4.4 4.8 4.4 4.0 3.2 3.6 2.5 2.8
6.6 6.6 6.6 6.6 6.7 6.9 6.6 6.1 5.9 6.0 6.1 6.5 5.9 6.4 4.9 5.9 6.7 6.3 5.5 5.5 5.2 4.8 5.6 6.5 6.2 6.5 6.5 6.5 6.5 6.5 6.5 6.5 6.5 6.5 6.3 6.5 6.5 6.3 5.6 5.8 5.7 5.2 5.0 5.2 5.3 5.9 4.6 4.6 4.0 4.5 4.7 4.2 2.4 2.7
7.5 6.9 6.4 6.6 6.8 6.7 7.1 6.6 6.4 6.1 6.5 5.2 5.1 6.0 6.0 7.0 6.2 6.3 6.5 6.5 6.5 6.5 6.7 6.5 6.5 6.5 6.5 6.5 6.5 6.4 6.5 6.5 6.5 6.5 6.5 6.5 6.5 6.5 5.9 5.3 5.0 4.3 4.3 3.7 4.9 4.3 4.5 3.6 4.7 5.0 4.7 3.9 2.9 2.8
7.1 6.9 6.6 6.4 6.6 6.7 7.1 7.0 6.6 4.0 3.7 5.0 5.1 5.7 6.5 6.4 6.4 6.5 6.5 6.5 6.5 6.5 6.5 6.5 6.5 6.6 6.4 6.1 6.5 6.5 6.5 6.5 6.5 6.5 6.5 6.5 6.5 6.3 5.6 5.0 3.7 2.8 2.9 3.3 3.5 2.8 3.7 3.9 4.6 4.4 3.5 3.0 2.0 0.3
7.3 7.1 7.0 6.5 6.3 6.5 6.8 7.0 6.6 6.3 5.4 4.6 6.0 5.9 6.4 6.3 6.5 6.5 6.5 6.5 6.5 6.5 6.5 6.6 6.5 6.5 6.4 6.6 6.5 6.5 6.5 6.5 6.5 6.5 6.5 6.5 6.5 6.5 6.3 5.8 4.6 3.6 1.8 1.1 1.6 1.4 1.7 1.3 1.9 1.4 0.3 -0.0 0.1 -0.6
6.9 6.6 6.9 7.2 6.8 6.3 6.5 6.4 6.3 5.3 4.2 4.5 6.0 6.5 6.5 6.5 6.5 6.5 6.5 6.5 5.7 5.6 6.5 6.3 6.5 6.5 6.2 6.5 6.5 6.5 6.5 6.5 6.5 6.5 6.5 6.5 6.5 6.3 5.7 6.5 3.7 3.0 1.8 1.8 1.2 0.2 -0.3 -0.3 -0.9 -1.0 -0.5 -0.3 -0.6 -1.2
7.9 6.8 6.8 6.9 6.7 6.3 6.2 6.0 5.6 3.8 3.8 4.1 4.9 6.5 6.5 5.5 3.7 4.1 4.4 5.2 5.2 6.0 6.1 6.3 5.7 6.1 6.5 6.5 6.5 6.5 6.5 6.5 6.5 6.5 6.5 6.4 6.0 5.6 5.5 3.8 3.8 3.3 2.2 1.2 0.7 -0.2 -0.3 -0.4 -0.5 -0.7 -1.5 -1.1 -0.9 -1.2
8.7 7.9 6.9 7.5 6.8 5.8 5.7 4.3 3.6 3.9 2.9 3.3 5.1 6.4 5.4 6.2 6.4 4.4 5.6 5.9 5.3 4.7 3.2 4.9 6.5 6.5 6.5 6.5 6.5 6.5 6.5 6.5 6.5 6.5 6.6 5.7 5.3 5.0 4.6 3.8 2.9 2.7 2.8 2.0 0.8 0.4 0.3 0.4 0.2 0.1 -0.1 -0.5 -0.7 -0.9
8.9 7.4 6.9 7.2 6.5 5.4 4.9 3.4 4.3 5.3 4.3 5.9 6.2 0.1 4.7 4.0 4.7 1.4 2.8 4.2 4.1 2.7 6.5 6.5 6.5 6.5 6.5 6.5 6.5 6.5 6.5 6.5 6.5 6.5 4.0 4.5 4.1 3.3 2.6 2.5 2.4 2.3 2.2 2.4 2.5 2.3 1.6 1.4 1.5 1.9 2.1 2.2 1.8 0.8
7.8 7.6 7.0 7.0 7.1 4.8 3.4 4.4 4.6 4.8 6.5 4.9 6.5 2.9 3.6 1.9 1.2 2.2 2.2 3.7 4.4 2.7 4.6 6.3 5.8 6.5 6.5 6.5 6.5 6.5 6.3 6.0 5.4 4.9 4.2 3.5 2.8 2.9 3.2 3.1 3.4 3.3 3.1 3.8 4.3 4.5 3.9 3.8 4.5 4.7 4.5 4.4 3.8 3.6
7.8 7.6 7.0 7.3 7.8 6.9 4.5 5.3 4.8 6.4 5.4 3.4 2.6 2.8 2.5 1.7 3.4 3.4 3.5 3.7 4.0 4.3 3.6 4.8 6.5 6.5 6.5 6.5 6.5 5.8 5.7 6.7 6.4 5.5 4.4 3.8 3.4 3.2 2.9 3.3 3.7 3.8 3.9 4.3 5.5 6.1 6.0 6.0 5.8 5.4 5.1 4.8 4.4 4.6
8.2 7.6 7.0 7.3 7.7 5.6 6.0 5.2 4.9 5.6 6.5 4.4 3.9 3.9 3.5 2.9 3.5 1.8 2.6 4.4 4.6 4.4 5.6 6.5 6.5 5.9 4.2 1.7 2.1 2.4 3.2 3.9 4.2 5.1 5.6 4.7 4.4 4.6 4.4 4.1 3.9 4.4 4.6 5.4 5.8 5.8 5.9 5.4 5.3 5.2 5.0 4.9 4.6 4.8
7.3 5.7 7.5 6.8 5.8 5.7 5.7 4.6 4.4 4.6 5.0 5.1 3.9 4.3 5.5 4.2 3.6 3.7 4.1 4.3 4.6 6.2 6.5 3.6 1.9 0.6 1.8 1.1 2.1 2.2 2.6 3.2 2.9 3.7 6.0 5.7 4.5 4.2 4.5 5.2 5.8 5.5 6.1 6.3 6.6 6.1 6.1 6.1 5.6 5.0 4.9 4.9 4.8 4.7
6.1 7.5 6.3 6.3 5.9 5.8 5.7 5.3 4.9 3.3 5.4 5.4 5.2 4.6 6.4 6.5 5.9 3.9 3.9 4.7 5.6 3.6 3.2 2.2 1.9 3.0 3.7 4.6 2.7 3.5 3.1 3.7 3.7 3.4 3.7 4.4 5.9 5.5 5.2 5.5 6.0 5.9 5.9 5.6 6.6 6.4 5.5 5.1 4.9 5.0 4.7 4.3 4.3 4.2
8.2 7.5 6.4 6.3 6.6 5.5 5.9 5.4 6.2 5.8 6.5 6.5 5.9 6.5 6.5 6.5 4.5 4.5 6.5 5.2 3.6 3.0 2.7 3.6 3.9 4.7 3.9 3.9 3.9 3.4 3.1 3.3 3.1 3.3 3.6 3.8 4.5 4.6 4.9 5.4 6.1 6.1 6.2 6.0 4.9 5.2 5.3 5.2 5.4 5.3 4.7 4.4 4.7 4.8
7.9 6.4 5.9 6.3 6.6 6.5 6.4 6.5 6.3 6.4 6.5 6.5 6.5 6.5 6.5 6.5 4.7 6.2 6.5 6.5 6.7 6.1 5.0 3.8 2.6 2.2 2.5 3.9 3.3 3.1 3.7 3.4 3.4 2.2 3.2 4.5 4.8 5.0 5.2 5.4 5.8 5.5 6.5 5.8 5.7 5.3 4.7 4.8 4.0 4.4 4.0 3.3 5.1 5.5
5.6 5.8 6.0 6.5 6.1 6.5 6.5 6.5 6.5 6.5 6.5 6.5 6.5 6.5 6.5 5.4 6.5 6.5 6.5 6.6 6.3 5.5 4.8 4.8 5.8 6.2 6.5 6.4 6.0 5.2 4.3 4.6 4.5 4.2 3.7 4.5 4.9 4.6 5.2 5.4 5.4 5.7 4.1 4.3 4.0 4.4 4.8 4.2 3.7 3.1 3.8 4.1 3.0 3.8
6.5 5.2 6.5 6.5 6.5 6.5 6.5 6.5 6.5 6.5 6.5 6.5 6.5 6.5 5.9 6.5 6.5 6.5 6.5 6.2 6.5 6.0 5.3 4.5 5.1 6.1 5.6 5.4 5.4 4.6 4.6 4.2 4.3 5.3 4.8 3.8 4.1 3.9 4.7 4.9 4.8 4.3 3.8 4.9 4.6 4.9 5.5 5.3 4.5 4.1 4.7 4.9 5.1 4.6
6.5 6.5 6.8 7.0 6.9 6.7 6.5 6.5 6.6 6.5 6.5 6.5 6.5 6.5 6.5 6.5 6.5 6.5 6.1 5.6 6.4 6.0 6.2 5.6 5.7 5.6 6.2 5.7 5.2 4.7 4.0 4.4 4.5 4.9 4.3 4.6 3.8 3.9 4.3 4.0 4.2 4.3 3.6 4.1 4.8 5.0 5.2 5.1 4.6 4.6 5.1 5.2 5.6 6.0
5.5 6.5 6.5 6.4 6.6 6.8 6.5 6.5 6.5 6.5 6.5 6.5 6.5 6.5 6.5 6.5 6.5 6.0 5.2 5.7 5.5 6.4 6.6 6.2 6.1 5.6 5.5 4.7 2.9 3.6 3.6 3.5 3.7 3.9 3.7 3.6 3.2 3.1 2.6 2.3 3.0 2.5 3.1 3.3 3.8 4.3 4.8 4.9 4.8 5.2 5.3 5.4 5.4 6.1
5.9 6.1 6.8 6.5 6.5 6.5 6.5 6.5 6.5 6.7 6.8 5.9 6.5 6.5 6.5 6.6 5.7 5.8 5.6 5.1 5.4 5.8 4.1 3.5 3.4 1.6 1.7 1.2 0.4 0.0 0.6 3.7 4.7 5.3 5.4 5.9 5.6 5.0 3.0 3.2 3.1 3.3 2.7 2.6 1.8 3.0 3.6 3.9 4.2 4.5 5.5 5.4 5.6 5.9
6.3 6.8 6.5 6.5 6.5 6.5 6.4 6.1 5.9 5.0 5.5 5.3 5.2 6.1 6.3 5.8 4.3 3.5 3.9 3.4 3.4 1.4 -1.7 -2.8 -3.8 -1.3 -2.3 -1.2 -0.9 1.0 0.9 3.3 3.9 4.6 5.6 6.1 5.9 5.3 5.2 3.9 3.4 3.2 2.8 2.8 2.5 1.9 2.4 2.8 3.6 4.3 4.5 5.1 5.4 6.1
6.3 6.1 6.5 6.5 6.5 6.4 6.3 5.3 5.1 4.9 3.4 3.3 2.1 3.7 4.2 2.2 2.6 2.8 2.4 -0.4 -2.9 -3.7 -1.3 -2.2 1.0 2.2 3.3 3.8 3.9 -0.2 0.9 -1.5 2.4 2.8 3.7 4.4 5.2 5.0 4.5 4.8 4.6 4.1 3.9 4.0 4.0 4.2 4.0 4.3 4.5 4.8 5.2 5.9 5.4 6.3
5.6 6.3 6.5 6.5 6.5 6.1 5.8 6.0 6.0 5.6 4.2 4.0 3.9 1.8 1.8 1.5 3.4 4.2 3.1 0.2 1.5 0.5 -0.2 -1.2 -0.8 1.7 2.2 1.9 1.0 1.3 -1.5 0.9 -0.3 0.1 0.9 2.8 3.5 3.4 3.7 4.9 5.0 5.0 4.9 4.6 4.4 4.4 4.7 5.1 5.3 5.5 5.5 5.9 6.0 6.0
5.8 4.7 3.9 5.1 6.4 6.5 6.2 6.1 6.5 6.5 5.9 6.1 5.2 1.5 -0.0 0.5 6.2 4.3 1.0 -2.5 -1.0 -2.1 -1.8 -2.6 -3.6 -4.0 -2.3 -2.7 -2.8 -3.4 -1.8 -1.8 -1.9 -0.6 -0.6 -0.2 0.4 1.5 2.0 3.1 5.4 5.8 5.3 5.1 4.9 4.4 4.4 4.9 5.0 4.9 5.1 5.0 4.7 4.2
Wind_Speed
20 21 22 24 26 27 27 26 30 29 22 8 8 3 26 24 21 7 2 3 4 2 1 1 4 6 3 4 5 3 1 3 6 7 3 5 3 7 3 4 7 10 10 6 6 7 12 6 4 19 7 2 3 12
20 21 21 23 25 27 27 25 27 27 24 13 14 16 12 20 17 5 3 2 4 4 3 2 3 1 2 6 5 3 2 2 2 1 3 4 2 4 7 6 3 7 8 8 11 7 4 5 6 4 2 3 3 6
19 19 20 21 24 25 25 25 23 25 21 14 8 19 21 13 15 5 3 3 3 3 2 1 2 1 0 4 4 4 1 4 5 3 1 3 5 4 5 5 4 4 4 4 4 6 5 5 2 3 2 2 2 3
19 19 19 21 22 23 24 24 22 23 21 18 6 12 4 18 19 7 3 1 4 3 3 4 2 5 1 1 2 3 4 5 4 3 3 2 3 4 2 3 6 5 12 7 3 6 4 9 7 8 3 8 9 7
19 19 19 20 21 22 23 22 21 22 22 19 9 3 7 10 15 9 4 3 2 4 3 3 3 4 2 3 4 3 3 3 2 2 2 4 3 3 2 3 4 5 6 10 11 9 13 9 17 10 9 12 16 11
22 21 20 20 20 21 21 21 21 18 20 17 9 8 8 17 14 4 2 2 2 3 3 2 3 2 1 3 3 5 6 4 2 3 3 3 4 3 4 3 3 5 6 10 6 11 16 8 16 13 13 13 12 15
22 23 22 21 21 21 20 20 18 15 17 18 8 10 15 15 4 2 1 1 5 4 2 2 3 2 3 2 1 2 4 3 4 3 4 4 4 7 3 3 5 9 7 5 4 8 3 8 10 12 10 11 9 5
21 22 23 22 21 20 20 19 18 15 7 9 16 13 13 10 7 2 3 4 5 3 1 1 3 1 6 3 2 4 3 3 4 4 2 5 3 4 5 11 8 7 5 5 10 7 10 8 10 9 13 14 13 12
21 20 20 22 21 20 19 20 20 17 8 2 7 8 4 4 1 0 1 6 3 2 2 3 3 4 5 3 2 2 3 4 4 5 6 6 5 5 10 10 8 8 6 6 6 6 9 12 14 14 16 15 16 11
20 19 19 19 20 20 18 18 18 14 8 2 3 1 2 1 6 3 2 1 2 3 2 3 2 3 4 3 3 3 4 3 3 5 3 4 3 10 6 5 5 5 2 8 8 5 10 9 10 12 12 13 16 15
21 20 21 20 20 20 18 17 16 10 2 1 1 1 1 9 1 1 2 2 3 2 3 3 5 3 4 4 3 3 2 2 3 4 4 4 3 4 1 5 7 8 7 5 2 8 13 13 13 13 11 12 14 16
21 22 22 21 20 20 17 17 15 2 2 4 2 0 1 1 1 2 3 2 3 3 3 2 3 3 2 2 3 2 2 2 4 2 3 3 2 4 2 4 5 8 11 9 10 11 9 11 13 14 15 14 11 11
21 22 22 22 21 20 16 18 16 11 7 1 3 2 2 1 1 4 4 2 2 2 3 3 2 1 2 1 2 2 3 2 2 2 1 2 1 4 5 7 12 10 15 14 12 13 12 11 11 16 12 11 13 12
22 22 23 22 18 14 17 20 17 9 2 3 4 3 4 3 3 3 2 2 3 2 3 1 2 2 1 1 1 2 2 3 3 1 3 1 5 5 6 4 14 13 15 12 11 13 14 13 12 12 11 10 13 12
21 23 24 19 13 16 19 22 19 3 3 2 3 3 4 2 1 3 2 2 3 2 2 1 1 2 2 1 1 2 4 3 3 3 2 0 6 7 7 10 13 11 9 10 9 11 12 11 12 11 8 8 11 12
19 19 3 12 18 20 22 14 2 2 2 2 2 1 1 2 3 2 1 3 2 1 1 1 1 2 1 1 3 3 2 2 3 3 2 2 7 6 7 6 8 10 10 9 9 10 10 10 10 10 10 8 9 11
17 4 6 20 23 24 20 3 1 3 4 4 2 2 2 1 4 3 2 2 1 2 1 1 1 1 1 1 0 1 2 3 4 2 2 4 5 6 6 7 7 9 10 9 10 9 9 9 9 10 11 7 9 9
9 9 16 18 15 7 2 1 2 3 5 2 2 3 3 2 2 2 2 1 1 0 1 1 2 1 2 1 3 2 1 1 1 0 2 4 6 5 5 7 6 8 10 10 10 7 8 9 9 6 10 9 9 8
10 9 13 16 8 4 2 2 3 3 4 3 2 2 2 2 2 2 2 3 2 2 1 2 0 2 2 2 3 2 2 2 1 2 3 5 6 7 7 6 5 6 8 7 7 5 5 6 5 6 7 7 6 6
17 18 17 13 6 2 3 3 1 2 3 3 2 3 3 2 2 1 0 2 2 2 2 1 3 2 3 2 3 3 3 3 4 3 2 2 2 5 6 6 3 4 4 5 5 6 4 4 4 5 5 6 7 7
6 5 7 4 3 3 3 2 2 3 2 3 3 4 2 1 1 1 1 1 1 2 2 2 3 3 3 2 3 3 4 5 3 3 3 3 2 3 4 4 4 3 3 3 4 3 3 5 5 4 5 5 5 5
3 6 1 1 2 2 3 3 2 2 3 2 3 3 3 2 2 2 2 1 2 3 3 3 2 1 2 2 2 2 4 5 5 4 5 7 4 4 4 4 4 3 3 3 3 3 2 3 4 4 5 5 6 5
3 3 1 2 3 2 5 2 3 4 3 3 2 4 1 2 3 3 1 3 2 2 2 2 3 2 2 2 2 2 3 5 4 4 4 4 5 4 4 5 5 5 4 3 4 4 3 5 5 5 5 5 6 5
7 3 4 4 5 4 2 3 2 3 2 3 4 3 3 3 3 2 2 2 1 2 3 5 3 2 3 5 3 2 3 2 3 3 2 4 4 4 4 5 4 3 5 4 4 4 5 5 6 6 6 5 7 6
4 4 4 5 3 3 4 3 4 3 3 3 4 1 2 2 2 2 3 3 1 2 3 2 6 5 4 3 4 4 7 2 2 3 3 2 2 2 2 2 3 4 4 5 4 6 5 5 6 6 7 7 6 6
3 4 6 5 2 4 5 4 5 4 3 3 4 2 2 3 3 2 2 2 2 2 2 3 2 3 5 5 4 4 4 3 3 3 3 6 5 4 5 5 4 3 3 6 7 8 9 8 8 10 8 9 11 9
1 3 3 3 2 1 1 1 1 3 2 4 3 2 3 3 2 2 1 2 2 2 2 4 5 5 5 5 4 4 4 4 3 4 3 4 5 5 6 7 8 5 6 7 8 10 12 12 10 11 10 8 9 9
2 2 2 1 1 1 2 2 2 2 2 1 3 2 4 4 2 1 2 1 1 1 4 5 5 4 4 4 3 5 4 6 6 3 1 2 1 2 3 2 3 8 6 7 8 8 10 10 11 11 11 10 7 8
2 3 3 1 2 3 2 2 2 2 3 2 3 2 2 2 2 2 2 2 2 3 3 3 3 3 3 3 3 4 3 6 8 8 8 6 3 4 3 3 4 5 5 6 7 9 11 10 10 10 11 9 8 7
2 3 2 3 2 2 2 2 2 2 3 2 2 3 3 3 3 3 3 3 2 1 1 2 1 4 3 4 4 5 4 6 6 5 5 5 6 6 6 2 1 4 5 7 7 6 7 6 5 4 7 6 6 6
2 1 2 1 1 2 2 1 2 3 3 3 4 3 3 2 2 4 6 3 2 3 4 4 5 5 6 6 6 4 5 3 8 8 7 5 7 7 6 6 2 2 4 7 9 9 8 7 8 8 9 10 9 8
3 2 2 2 2 2 3 3 2 2 3 3 3 2 3 3 3 3 5 3 5 5 4 2 3 3 4 3 2 2 2 4 5 4 7 5 4 6 8 6 4 2 4 5 7 9 12 11 9 9 10 12 12 11
2 3 3 2 2 2 3 2 3 2 3 3 3 2 1 3 3 1 1 3 3 3 1 2 3 3 3 2 1 2 3 3 6 7 8 7 6 5 5 6 6 4 5 6 7 8 13 15 11 13 12 12 11 10
Wind_Direction
340 341 340 337 335 337 340 343 347 349 355 6 27 125 122 124 134 101 134 346 111 88 8 281 159 139 127 150 160 238 56 153 178 200 213 241 181 192 194 201 173 169 171 186 181 195 244 200 144 175 219 216 226 203
341 342 342 341 340 341 343 344 350 354 356 5 110 103 92 103 100 108 95 40 47 86 183 294 268 176 164 185 126 161 149 54 317 291 211 280 228 167 156 211 205 181 177 170 186 208 202 200 196 235 213 152 189 146
336 341 344 346 344 344 346 345 350 354 358 359 72 167 182 178 168 143 131 181 76 94 16 23 244 7 276 199 155 122 263 167 168 173 314 297 253 193 187 219 126 206 141 139 121 223 219 230 222 140 228 101 21 84
338 341 345 348 348 347 348 348 348 357 357 355 28 52 131 207 216 165 96 51 86 101 108 285 256 258 283 229 125 107 144 103 114 157 180 234 275 290 253 243 194 186 159 158 266 254 237 251 239 153 155 109 97 73
348 345 346 349 349 351 350 350 347 354 354 349 349 67 90 55 105 78 67 23 89 125 180 271 265 249 183 165 206 75 84 118 157 200 198 205 243 295 239 273 215 172 167 185 215 186 195 213 220 141 164 173 158 139
339 337 338 343 346 350 352 350 350 346 353 354 341 97 101 105 70 68 45 322 356 107 95 330 295 293 123 159 203 222 235 230 216 186 197 220 229 145 278 252 248 251 214 199 207 191 203 181 163 179 171 173 178 158
338 333 331 333 338 342 349 351 350 344 353 9 3 139 129 118 102 87 97 235 153 76 155 229 269 288 185 127 203 199 190 212 208 203 221 208 193 184 260 249 260 218 218 222 193 132 138 164 186 172 155 164 130 97
332 333 331 328 329 333 339 344 347 347 329 27 47 67 121 117 112 57 0 108 108 105 134 264 265 289 168 194 220 176 214 193 224 225 226 210 195 164 233 239 242 224 203 217 185 218 204 156 127 123 133 133 131 129
321 326 330 327 327 327 335 341 343 339 192 96 53 38 24 34 43 336 314 82 47 89 197 205 187 245 162 213 191 189 202 218 201 208 205 185 198 211 222 231 222 201 183 174 159 139 128 148 142 145 142 142 133 131
314 319 327 329 325 325 330 343 349 5 158 276 341 282 328 193 140 98 47 127 155 210 226 229 211 249 178 176 214 213 198 230 214 214 136 212 231 236 241 251 279 236 134 126 113 122 126 117 128 134 152 152 139 138
323 322 320 322 324 322 322 337 345 339 71 10 315 48 23 152 21 216 178 211 173 230 208 229 224 214 190 209 218 212 230 220 236 201 199 187 242 240 219 217 220 180 156 190 112 172 166 149 144 135 127 121 123 127
316 315 317 316 318 319 311 327 337 356 208 175 130 223 139 251 249 248 197 191 215 235 183 220 231 219 214 202 227 204 247 229 238 164 215 165 272 345 126 138 114 112 110 98 106 103 106 126 138 128 123 120 112 108
312 311 314 314 312 312 306 316 320 301 286 158 174 201 185 190 322 204 209 204 254 202 199 207 224 237 200 207 266 261 252 280 304 319 44 235 131 80 70 84 81 90 97 90 81 85 81 79 99 108 96 102 115 108
305 307 309 310 310 319 316 315 318 314 154 173 166 279 170 264 242 206 218 231 267 244 248 180 196 200 209 256 275 287 312 291 298 329 254 299 102 94 82 98 94 78 77 84 82 84 82 86 84 89 109 124 122 119
300 304 305 301 301 318 318 315 307 194 165 189 106 231 216 227 253 235 231 263 245 239 201 206 248 162 186 241 297 321 331 310 284 271 327 89 100 98 95 96 99 99 99 93 90 89 90 93 97 94 84 100 114 116
297 306 278 347 335 324 319 320 208 144 77 127 173 95 227 71 302 312 273 260 255 252 28 118 267 70 238 183 198 230 272 242 289 4 323 136 112 106 103 98 106 109 111 110 104 102 99 97 105 105 105 106 111 118
293 234 277 326 325 318 311 257 112 196 189 172 259 166 172 171 195 221 196 256 298 74 210 99 5 316 341 311 311 59 215 291 330 349 328 60 94 105 102 105 104 104 100 100 109 106 106 111 114 117 119 113 108 105
266 276 285 301 316 316 284 210 183 183 208 183 162 231 189 186 182 308 263 269 15 192 111 202 162 10 173 168 298 227 159 41 2 130 117 103 100 93 99 114 108 112 112 118 120 115 127 137 137 128 126 126 116 118
269 268 273 288 292 298 288 267 151 226 213 179 183 163 152 214 223 195 250 289 249 245 73 32 150 207 230 225 214 233 226 182 198 17 45 59 86 97 89 71 72 90 106 118 123 129 125 118 116 126 128 133 132 138
278 283 279 264 232 217 254 253 140 197 200 210 122 154 167 193 173 139 331 335 17 35 356 265 235 234 192 235 196 201 182 157 134 89 65 63 74 121 130 129 119 120 104 106 102 107 107 97 102 112 128 133 138 137
296 237 254 174 185 203 262 239 235 206 174 184 164 133 184 80 89 135 184 150 80 217 254 231 241 256 238 228 180 162 157 155 175 148 156 147 157 124 131 124 126 125 121 118 130 124 123 151 145 126 129 129 127 134
241 286 143 197 201 220 247 224 205 203 152 155 128 147 132 135 197 214 152 110 224 227 200 205 228 225 295 283 272 192 152 131 121 103 92 126 152 150 156 150 141 140 133 148 143 147 136 109 122 124 123 116 118 124
313 192 209 217 210 201 253 144 181 179 158 190 116 142 185 185 202 124 153 195 218 326 301 274 288 273 259 325 106 89 139 139 148 153 152 160 161 155 148 155 150 152 156 159 149 156 151 140 142 133 125 129 135 139
192 176 189 209 200 232 224 210 208 149 148 161 162 177 187 190 146 101 180 99 55 342 25 24 21 18 20 32 27 13 35 117 113 65 123 138 149 158 155 159 159 156 166 154 153 145 142 148 134 140 145 145 152 150
125 233 177 222 237 193 203 191 184 170 162 175 148 208 185 135 115 141 150 136 89 10 360 24 66 64 70 61 49 51 27 55 147 187 184 169 113 87 123 142 169 181 148 139 137 141 145 142 141 148 154 154 149 149
187 234 172 199 232 186 187 170 195 169 138 142 179 132 99 96 93 167 110 106 91 23 4 36 58 75 57 32 31 16 356 347 327 212 189 174 178 163 173 180 189 234 187 165 155 160 165 165 161 166 171 172 167 164
169 286 235 225 269 207 131 37 103 101 120 160 162 92 89 119 141 96 88 30 86 55 36 56 58 64 56 36 14 354 339 346 341 289 281 194 181 183 176 183 201 205 165 168 167 166 174 180 174 179 179 176 179 176
206 288 288 258 36 61 132 67 114 145 154 95 91 73 125 136 143 95 125 133 117 79 66 63 59 57 48 33 1 4 359 349 329 305 335 48 52 183 181 163 145 155 163 172 172 169 173 177 180 179 176 177 178 179
346 317 332 44 54 28 42 65 77 42 349 57 99 87 81 54 43 63 62 57 47 75 65 43 13 13 28 11 24 8 4 22 19 20 13 7 354 28 305 178 158 166 163 164 171 171 175 174 174 173 173 173 172 168
327 10 39 13 40 61 7 12 68 357 26 60 92 79 69 57 15 341 25 38 61 86 129 100 4 63 44 37 3 3 14 35 32 24 354 356 338 334 336 358 211 181 165 160 155 138 129 131 129 135 150 157 163 169
341 65 86 105 73 18 32 339 28 50 39 47 22 80 104 140 5 25 32 19 76 74 67 41 49 42 43 33 25 12 345 335 6 354 353 344 340 332 330 331 319 174 197 180 169 169 166 166 176 171 175 175 175 176
19 35 96 73 86 349 30 42 50 55 16 50 24 38 30 51 58 17 355 14 47 53 31 65 53 10 9 1 359 354 307 315 317 315 320 320 337 340 330 315 294 227 182 186 187 171 171 178 185 186 187 183 179 181
17 27 45 54 28 81 24 72 54 69 32 43 41 50 76 123 99 179 12 52 125 155 157 255 252 261 281 298 294 320 337 301 312 328 338 329 324 324 327 330 316 264 213 197 193 192 184 182 192 200 200 194 187 185